"Pseudo-MPEC" for P2183HO

Created 2020 Oct 20 1:07:32 UT using Find_Orb

Click here for an explanation of pseudo-MPECs

 
 Astrometry: 
     P2183HO  C2017 01 16p/XZ:ta=Y@SW[(9\l5dU5AolHsAstrometryE./U8YdK9YyPXu)5F51
     P2183HO  C2017 01 16VeO8XgSw\yUE.x?%kx$FN6AXLQwUiUsFvCXwhK_,_^E?*CC*KZK]F51
     P2183HO  C2017 01 16`[oEjBEgHCEO@3T%tZX%]'FN;K1!'FpM78L$:o#C57xn123C8p:nF51
     P2183HO  C2017 01 16Q`vF2.G9.q@Ecm#$b'GRy)23$^@ri[o6GW7`e/[1rN4PjoxB3wCpF51
     P2183HO  C2019 05 07/0QgHK`8,/(Sf?n+NO!#++m)jh[g8DQi2;L8![tU!9I,Bx#wUb(HF51
     P2183HO  C2019 05 07fl^!3wEe@1e[]W]rQlsj;Zfm]cHylJ;2q3*w2oqDZS[kjTB\'gQ;F51
     P2183HO  C2019 05 07Sxx=wc$muumbZDtO;dHTUl.RNi?Y+L1]C15,j\[redacted;eOCEF51
     P2183HO  C2019 05 11MOB6mkj]RTfBMy'1Cv-*fie,rc+E'4B='g.*J`8clickj\fj=@U6F51
     P2183HO  C2019 05 11c+CGLggX_P=_1R'N3n6=rQV=gva_puY!r'M_n_yx#8//s7BAN`9YF51
     P2183HO  C2019 05 11p0Fq_g4uiaVpF$0y37eB0#Q+XEd(UNMXjnF@7-P..U-1+Ew'/Ea+F51
     P2183HO  C2019 05 11$`I,;A5ByY7FyN-P6;_.IJmHGNW!tr`RXc8t_'p^a-^`6lja)i0TF51
     P2183HO  C2019 05 116XUej19bqEA5]ot?e2MK@=qeCXnfi#!Xhki'.:LO)cxW\cjb6;)SF51
     P2183HO  C2019 05 11fnQD=g?tiwb4@CB4IKgIOIg?2W4oe=yY3fxbUOJDIH@^KlV8o+\%F51
     P2183HO  C2019 05 11(:mw%nnum'bYZJi/OgYw-qy'oo21+k9E_j$-8yT?gyfV/;CBl+moF51
     P2183HO  C2019 05 11*tdS`O_Rh^k2cxJRiX?CEPR:MNaXA0=oNpU#/-EnRW1P[M\J`Vm+F51
     P2183HO  C2019 07 05`yy3'`Fp=qDgMGw4FEg#Vq^]TcCd0(Jd(]Eh]H9here?]hF_?5+dF51
     P2183HO  C2019 07 05ctM!W'dUkO]om?S8bj:!kZ83ZQRo]pKjy!GZ@VI:uY(TAsov)5+=F51
     P2183HO  C2019 07 05f]g#S8WwkYxLSURo'r(0L$]u!Xi`PVC=3PUkM!$%MWZY3)`+2J16F51
     P2183HO  C2019 07 05--jb?ZHojE2WOBVC\J7]JFwU2Hg/NlrG@=J@)(o%*Le.L$/M$-\6F51
     P2183HO  C2019 07 05/I8Q_6ye1j+yL%0for'uh.xmq%qXa.ge,_v;%a1Il1umj+MK[Y3/F51
     P2183HO  C2019 07 05Q8Z/yBQdC7[\3v;O.dAs9h=yhZXHmAS+!^DG#A^^Wr4sGv7BoQ12F51
     P2183HO  C2019 07 05PMU0_WW0b[%NW2;X^PQ_LB(vsmb#t=3YtD9^`t?aTmTY42rd=Wj`F51
     P2183HO  C2020 10 159f3`)7ZF$muI,3/'RJ5EiiYWVQAMbeg,Ub5lw5Jj0swD]XP-mvP6F52
     P2183HO  C2020 10 15/-Fexplanation`(tn;$TpAibrXgbC`9gCK=+rm[/VC/K]?sywMoF52
     P2183HO  C2020 10 15rp2DOy-r997L0BDXW-4T=QJSS![INQ5rZhYR'ZE,V:*4L8H/S`cWF52
     P2183HO  C2020 10 15:=3u@aU3aCm9$M_w3o7=)c/+Dr_*\pDS)ssj($a%KT]xmZ1br(E5F52
     P2183HO KC2020 10 17.37918805 26 03.57 -11 30 29.3    ~AHA7 20.53GVNEOCPI52
     P2183HO KC2020 10 17.38996305 26 03.36 -11 30 28.9    ~AHA7 20.47GVNEOCPI52
     P2183HO KC2020 10 17.40203605 26 03.09 -11 30 28.7    ~AHA7 20.65GVNEOCPI52
     P2183HO KC2020 10 17.41172305 26 02.87 -11 30 28.2    ~AHA7 20.30GVNEOCPI52
     P2183HO  C2020 10 198QY0jdF`byj\L46.lQg=+K;S+;#/;9!FLe662PSeti8/%F!V4?;_F52
     P2183HO  C2020 10 194nj;dH$%;%KgD;XVk1BfTZOYZPiHI*a^y,y=TWBI6G6ZH7a33'gGF52
     P2183HO  C2020 10 19VF'ai*0tknMwGj+$fTngEO)G@j[SLH(I[CleTfWH9.J]nNIHwjGLF52

Station data:
(F51) Pan-STARRS 1, Haleakala  (N20.707235 W156.255910)  US/Hawaii.
   Observers N. Primak, A. Schultz, S. Watters, J. Thiel, T. Goggia. Measurer
   PS1 Science Consortium. 1.8-m Ritchey-Chrétien + CCD.
(F52) Pan-STARRS 2, Haleakala  (N20.707384 W156.255910)  US/Hawaii. 1.8-m
   Ritchey-Chrétien + CCD.
(I52) Steward Observatory, Mt. Lemmon Station  (N32.442547 W110.788920)
   US/Arizona.  Observers T. A. Pruyne, B. M. Africano, E. J. Christensen, G.
   A. Farneth, D. C. Fuls, A. R. Gibbs, A. D. Grauer, H. Gröller, J. A.
   Johnson, R. A. Kowalski, S. M. Larson, G. J. Leonard, R. G. Matheny, D.
   Rankin, R. L. Seaman, F. C. Shelly. 1.0-m reflector + CCD.

Orbital elements:  P2183HO
   Perihelion 2020 May 12.558432 +/- 0.00052 TT = 13:24:08 (JD 2458982.058432)
Epoch 2020 Oct 19.0 TT = JDT 2459141.5   Earth MOID: 0.9041   AutoNEOCP
M  35.22473201 +/- 0.00010          (J2000 ecliptic)
n   0.22092564 +/- 7.37e-8          Peri.  245.67346 +/- 0.00014
a   2.71001662 +/- 6.03e-7          Node    95.02130 +/- 0.000054
e   0.3554475 +/- 2.12e-7           Incl.   33.23159 +/- 0.000031
P   4.46                   H 17.7   G  0.15   U  1.8  
q 1.74674795 +/- 8.41e-7    Q 3.67328529 +/- 7.27e-7
From 33 observations 2017 Jan. 16-2020 Oct. 19; mean residual 0".14
Residuals in arcseconds: 
170116 F51  .16+  .20+    190511 F51  .03-  .00     201015 F52  .02+  .06-    
170116 F51  .22-  .18-    190511 F51  .13+  .04-    201015 F52  .06-  .12-    
170116 F51  .06+  .21+    190511 F51  .07+  .00     201015 F52  .02+  .03+    
170116 F51  .00   .24-    190511 F51  .43+  .10+    201015 F52  .04-  .04-    
190507 F51  .04+  .01-    190705 F51  .06+  .02-    201017 I52  .10+  .03+    
190507 F51  .00   .06-    190705 F51  .05-  .45+    201017 I52  .32+  .11+    
190507 F51  .03+  .01+    190705 F51  .01-  .13-    201017 I52  .08+  .05-    
190511 F51  .03-  .04+    190705 F51  .37-  .01-    201017 I52  .14-  .15+    
190511 F51  .06-  .01+    190705 F51  .22-  .10-    201019 F52  .19-  .07+    
190511 F51  .01-  .02-    190705 F51  .18+  .01-    201019 F52  .03-  .11-    
190511 F51  .28-  .21-    190705 F51  .07+  .08+    201019 F52  .07-  .01+    

Ephemerides (geocentric):
Date (UTC) HH   RA              Dec         delta   r     elong  mag " sig PA
---- -- -- --  -------------   -----------  ------ ------ -----  --- ---- ---
2020 10 20 01  05 25 04.602   -11 28 19.88  1.4277 2.1085 119.9 21.2 9.5m 124
2020 10 20 02  05 25 03.550   -11 28 17.29  1.4275 2.1087 119.9 21.2 9.5m 124
2020 10 20 03  05 25 02.494   -11 28 14.67  1.4272 2.1088 119.9 21.2 9.5m 124
2020 10 20 04  05 25 01.434   -11 28 12.03  1.4270 2.1090 120.0 21.2 9.5m 124
2020 10 20 05  05 25 00.370   -11 28 09.38  1.4268 2.1092 120.0 21.2 9.5m 124
2020 10 20 06  05 24 59.302   -11 28 06.70  1.4266 2.1093 120.0 21.2 9.5m 123
2020 10 20 07  05 24 58.230   -11 28 04.00  1.4264 2.1095 120.1 21.2 9.5m 123
2020 10 20 08  05 24 57.154   -11 28 01.28  1.4262 2.1096 120.1 21.2 9.5m 123
2020 10 20 09  05 24 56.074   -11 27 58.54  1.4259 2.1098 120.2 21.2 9.5m 123
2020 10 20 10  05 24 54.989   -11 27 55.79  1.4257 2.1099 120.2 21.2 9.5m 123
2020 10 20 11  05 24 53.901   -11 27 53.01  1.4255 2.1101 120.2 21.2 9.5m 122
2020 10 20 12  05 24 52.809   -11 27 50.20  1.4253 2.1102 120.3 21.2 9.5m 122
2020 10 20 13  05 24 51.712   -11 27 47.38  1.4251 2.1104 120.3 21.2 9.5m 122
2020 10 20 14  05 24 50.612   -11 27 44.54  1.4249 2.1106 120.3 21.2 9.5m 122
2020 10 20 15  05 24 49.507   -11 27 41.68  1.4247 2.1107 120.4 21.2 9.5m 122
2020 10 20 16  05 24 48.399   -11 27 38.79  1.4244 2.1109 120.4 21.2 9.5m 122
2020 10 20 17  05 24 47.286   -11 27 35.89  1.4242 2.1110 120.4 21.2 9.6m 121
2020 10 20 18  05 24 46.170   -11 27 32.96  1.4240 2.1112 120.5 21.2 9.6m 121
2020 10 20 19  05 24 45.049   -11 27 30.02  1.4238 2.1113 120.5 21.2 9.6m 121
2020 10 20 20  05 24 43.924   -11 27 27.05  1.4236 2.1115 120.5 21.2 9.6m 121
2020 10 20 21  05 24 42.796   -11 27 24.06  1.4234 2.1116 120.6 21.2 9.6m 121
2020 10 20 22  05 24 41.663   -11 27 21.05  1.4232 2.1118 120.6 21.2 9.6m 120
2020 10 20 23  05 24 40.526   -11 27 18.02  1.4229 2.1120 120.7 21.2 9.6m 120
2020 10 21 00  05 24 39.385   -11 27 14.97  1.4227 2.1121 120.7 21.2 9.6m 120
2020 10 21 01  05 24 38.240   -11 27 11.90  1.4225 2.1123 120.7 21.2 9.6m 120
2020 10 21 02  05 24 37.092   -11 27 08.81  1.4223 2.1124 120.8 21.2 9.6m 120
2020 10 21 03  05 24 35.939   -11 27 05.69  1.4221 2.1126 120.8 21.2 9.6m 120
2020 10 21 04  05 24 34.782   -11 27 02.55  1.4219 2.1127 120.8 21.2 9.6m 119
2020 10 21 05  05 24 33.621   -11 26 59.40  1.4217 2.1129 120.9 21.2 9.6m 119
2020 10 21 06  05 24 32.456   -11 26 56.22  1.4214 2.1130 120.9 21.2 9.6m 119
2020 10 21 07  05 24 31.287   -11 26 53.02  1.4212 2.1132 120.9 21.2 9.6m 119
2020 10 21 08  05 24 30.114   -11 26 49.80  1.4210 2.1134 121.0 21.2 9.6m 119
2020 10 21 09  05 24 28.936   -11 26 46.55  1.4208 2.1135 121.0 21.2 9.7m 118
2020 10 21 10  05 24 27.755   -11 26 43.29  1.4206 2.1137 121.1 21.2 9.7m 118
2020 10 21 11  05 24 26.570   -11 26 40.00  1.4204 2.1138 121.1 21.2 9.7m 118
2020 10 21 12  05 24 25.381   -11 26 36.69  1.4202 2.1140 121.1 21.2 9.7m 118
2020 10 21 13  05 24 24.188   -11 26 33.37  1.4200 2.1141 121.2 21.2 9.7m 118
2020 10 21 14  05 24 22.991   -11 26 30.01  1.4198 2.1143 121.2 21.2 9.7m 118
2020 10 21 15  05 24 21.789   -11 26 26.64  1.4195 2.1145 121.2 21.2 9.7m 117
2020 10 21 16  05 24 20.584   -11 26 23.25  1.4193 2.1146 121.3 21.2 9.7m 117
2020 10 21 17  05 24 19.375   -11 26 19.83  1.4191 2.1148 121.3 21.2 9.7m 117
2020 10 21 18  05 24 18.161   -11 26 16.40  1.4189 2.1149 121.3 21.2 9.7m 117
2020 10 21 19  05 24 16.944   -11 26 12.94  1.4187 2.1151 121.4 21.2 9.7m 117
2020 10 21 20  05 24 15.723   -11 26 09.46  1.4185 2.1152 121.4 21.2 9.7m 116
2020 10 21 21  05 24 14.497   -11 26 05.95  1.4183 2.1154 121.4 21.2 9.7m 116
2020 10 21 22  05 24 13.268   -11 26 02.43  1.4181 2.1155 121.5 21.2 9.7m 116
2020 10 21 23  05 24 12.034   -11 25 58.88  1.4179 2.1157 121.5 21.2 9.7m 116
2020 10 22 00  05 24 10.797   -11 25 55.31  1.4177 2.1159 121.6 21.2 9.7m 116